If you wish to contribute or participate in the discussions about articles you are invited to join SKYbrary as a registered user

 Actions

Petropavlosk South Airport

From SKYbrary Wiki

UACP
Airport
ICAO: UACP – IATA: PPK
Summary
Name Petropavlosk South Airport
Region Asia and Pacific
Territory Kazakhstan KZ.gif
Location Petropavlosk
Serving Petropavlosk
Elevation 125.882 m
413 ft
413 ft125.882 m
Coordinates 54° 46' 28.92" N, 69° 11' 2.04" E
Runways
Designator Length Width Surface ROPS
5/23 2496 m8,188.976 ft
39 m127.953 ft
ASP /


METAR
Observation UACP 280230Z 31008MPS 9999 BKN011 OVC026CB M04/M06 Q1021 NOSIG RMK QFE753/1004
Station PETROPAVLOVSK
Date/Time 28 October 2020 02:30:00
Wind direction 310°
Wind speed kts
Lowest cloud amount broken clouds
Temperature
Dew point
Humidity 85%
QNH 1021 hPa
Weather condition n/a

Description

Petropavl Airport (also given as Petropavlovsk South) is an airport in Kazakhstan located 11 km south of Petropavl (Petropavlovsk).